{"data":{"norad_id":43566,"intl_designator":"2018-060C","name":"GSAT0219 (GALILEO 23)","alt_names":[],"object_type":"PAYLOAD","status":"ACTIVE","operator":null,"country":"ESA","launch_date":"2018-07-25","launch_site_code":"FRGUI","launch_vehicle":null,"mission":null,"orbit_class":"UNKNOWN","rcs_meters":null,"size_class":null,"mass_kg":null,"dimensions":null,"purposes":["earth_obs","nav"],"wikipedia_slug":null,"has_3d_model":false,"image_url":null,"decayed_at":null,"tle_current":{"epoch":"2026-09-18T04:27:27.611136Z","epoch_age_seconds":214362,"freshness":"STALE","line1":"1 43566U 18060C   26261.18573624 -.00000095  00000+0  00000+0 0  9995","line2":"2 43566  57.1346 339.2746 0003548 271.8636  88.1484  1.70476457 50772","mean_motion":1.70476457,"eccentricity":0.0003548,"inclination_deg":57.1346,"raan_deg":339.2746,"arg_perigee_deg":271.8636,"mean_anomaly_deg":88.1484,"bstar":0,"rev_number":5077,"period_min":844.691416833,"perigee_km":23211.396553559,"apogee_km":23232.400738854,"semimajor_km":29600.035646207,"source":"CELESTRAK","updated_at":"2026-09-20T09:00:46.497430Z"}}}